{"data":{"norad_id":63105,"intl_designator":"2025-039B","name":"STARLINK-11624 [DTC]","alt_names":[],"object_type":"PAYLOAD","status":"ACTIVE","operator":null,"country":"US","launch_date":"2025-02-27","launch_site_code":"AFETR","launch_vehicle":null,"mission":null,"orbit_class":"UNKNOWN","rcs_meters":null,"size_class":null,"mass_kg":null,"dimensions":null,"purposes":["comms"],"wikipedia_slug":null,"has_3d_model":false,"image_url":null,"decayed_at":null,"tle_current":{"epoch":"2026-05-25T00:06:50.552064Z","epoch_age_seconds":88838,"freshness":"FRESH","line1":"1 63105U 25039B   26145.00475176  .00148868  00000+0  11383-2 0  9994","line2":"2 63105  42.9977 137.2231 0000640 241.7417 118.3386 15.70938517 71611","mean_motion":15.70938517,"eccentricity":6.4e-5,"inclination_deg":42.9977,"raan_deg":137.2231,"arg_perigee_deg":241.7417,"mean_anomaly_deg":118.3386,"bstar":0.0011383,"rev_number":7161,"period_min":91.664949609228,"perigee_km":355.78249782855,"apogee_km":356.64449469207,"semimajor_km":6734.3504962603,"source":"CELESTRAK","updated_at":"2026-05-25T13:38:19.882059Z"}}}